Date String (YYYY-MM-DD hh:mm:ss) UTC,Instrument flags,Ambient pressure (hPa),Sample flow (lpm),Bypass flow (lpm),Sample temperature (°C),Ambient temperature (°C),ASC tube jacket temperature (°C),LED temperature (°C),Box temperature (°C),Sample RH (%),Span deviation,Mass concentration (μg/m³),Mass concentration (μg/m³),Mass concentration (μg/m³)
DateTimeUTC,F1_M11,P_M11,Q1_M11,Q2_M11,T1_M11,T2_M11,T3_M11,T4_M11,T5_M11,U1_M11,ZSPAN_M11,X2_M11,X0_M11,X1_M11
2021-09-09 04:00:00,,0831.7,5.00,0.00,29.4,28.1,00.0,38.5,31.2,18.6,0002.4,0030.77,0049.23,0028.17
2021-09-09 04:01:00,,0831.7,5.00,0.00,29.4,28.3,00.0,38.5,31.2,18.6,0002.4,0030.80,0048.94,0028.18
2021-09-09 04:02:00,,0831.7,4.99,0.00,29.5,28.4,00.0,38.5,31.3,18.5,0002.4,0030.84,0048.56,0028.21
2021-09-09 04:03:00,,0831.7,4.99,0.00,29.5,28.5,00.0,38.5,31.3,18.5,0002.5,0030.84,0049.11,0028.23
2021-09-09 04:04:00,,0831.7,5.00,0.00,29.5,28.6,00.0,38.5,31.4,18.5,0002.6,0030.84,0049.47,0028.23
2021-09-09 04:05:00,,0831.7,5.01,0.00,29.6,28.7,00.0,38.5,31.4,18.4,0002.7,0030.77,0049.77,0028.23
2021-09-09 04:06:00,,0831.7,4.99,0.00,29.6,28.7,00.0,38.6,31.4,18.4,0002.6,0030.76,0048.45,0028.23
2021-09-09 04:07:00,,0831.7,5.01,0.00,29.7,28.8,00.0,38.6,31.5,18.4,0002.6,0030.76,0047.08,0028.26
2021-09-09 04:08:00,,0831.7,5.00,0.00,29.7,28.5,00.0,38.6,31.4,18.3,0002.3,0030.82,0047.20,0028.35
2021-09-09 04:09:00,,0831.7,4.99,0.00,29.6,26.5,00.0,38.6,30.9,18.4,0002.3,0030.92,0047.40,0028.39
2021-09-09 04:10:00,,0831.7,4.99,0.00,29.3,25.1,00.0,38.5,30.5,18.6,0002.4,0031.01,0047.37,0028.42
2021-09-09 04:11:00,,0831.8,5.02,0.00,29.2,25.3,00.0,38.5,30.5,18.8,0002.3,0031.03,0047.76,0028.46
2021-09-09 04:12:00,,0831.8,4.98,0.00,29.1,25.8,00.0,38.4,30.6,18.8,0002.3,0030.99,0047.73,0028.45
2021-09-09 04:13:00,,0831.7,5.00,0.00,29.1,26.3,00.0,38.4,30.6,18.8,0002.4,0031.00,0048.35,0028.45
2021-09-09 04:14:00,,0831.7,5.00,0.00,29.1,26.8,00.0,38.4,30.7,18.9,0002.2,0031.04,0048.60,0028.48
2021-09-09 04:15:00,,0831.7,5.00,0.00,29.1,27.2,00.0,38.3,30.8,18.9,0002.2,0031.06,0047.96,0028.53
2021-09-09 04:16:00,,0831.7,5.02,0.00,29.2,27.5,00.0,38.3,30.9,18.9,0002.1,0031.07,0048.63,0028.55
2021-09-09 04:17:00,,0831.7,4.99,0.00,29.2,27.7,00.0,38.3,30.9,18.8,0002.1,0031.10,0047.40,0028.59
2021-09-09 04:18:00,,0831.7,4.99,0.00,29.2,27.9,00.0,38.3,31.0,18.7,0002.2,0031.15,0047.08,0028.59
2021-09-09 04:19:00,,0831.7,5.00,0.00,29.3,28.0,00.0,38.3,31.1,18.7,0002.2,0031.14,0047.83,0028.54
2021-09-09 04:20:00,,0831.7,5.00,0.00,29.3,28.2,00.0,38.4,31.1,18.7,0002.1,0031.04,0048.73,0028.48
2021-09-09 04:21:00,,0831.7,5.01,0.00,29.3,28.3,00.0,38.4,31.1,18.6,0002.1,0031.01,0049.52,0028.47
2021-09-09 04:22:00,,0831.7,5.00,0.00,29.4,28.4,00.0,38.4,31.2,18.6,0002.1,0030.96,0049.63,0028.46
2021-09-09 04:23:00,,0831.7,5.00,0.00,29.4,28.4,00.0,38.4,31.2,18.6,0002.1,0031.00,0049.98,0028.49
2021-09-09 04:24:00,,0831.7,5.00,0.00,29.5,28.5,00.0,38.4,31.3,18.5,0002.1,0031.02,0050.18,0028.52
2021-09-09 04:25:00,,0831.7,5.00,0.00,29.5,28.6,00.0,38.4,31.3,18.5,0002.2,0030.99,0049.54,0028.51
2021-09-09 04:26:00,,0831.7,5.00,0.00,29.5,28.6,00.0,38.5,31.4,18.4,0002.2,0031.02,0049.92,0028.51
2021-09-09 04:27:00,,0831.7,4.99,0.00,29.6,28.7,00.0,38.5,31.4,18.4,0002.3,0031.11,0049.20,0028.56
2021-09-09 04:28:00,,0831.7,5.01,0.00,29.6,28.7,00.0,38.5,31.4,18.4,0002.5,0031.15,0050.30,0028.63
2021-09-09 04:29:00,,0831.7,4.99,0.00,29.7,28.8,00.0,38.5,31.5,18.4,0002.5,0031.25,0050.98,0028.72
2021-09-09 04:30:00,,0831.7,4.99,0.00,29.7,28.8,00.0,38.6,31.5,18.3,0002.5,0031.35,0050.34,0028.81
2021-09-09 04:31:00,,0831.7,5.00,0.00,29.7,28.9,00.0,38.6,31.5,18.3,0002.4,0031.40,0048.78,0028.87
2021-09-09 04:32:00,,0831.7,5.01,0.00,29.7,27.6,00.0,38.6,31.3,18.3,0002.3,0031.47,0048.12,0028.93
2021-09-09 04:33:00,,0831.7,5.00,0.00,29.5,26.2,00.0,38.6,30.9,18.5,0002.3,0031.60,0048.56,0029.01
2021-09-09 04:34:00,,0831.7,4.99,0.00,29.4,26.2,00.0,38.6,30.8,18.5,0002.3,0031.63,0048.34,0029.06
2021-09-09 04:35:00,,0831.7,5.00,0.00,29.4,26.6,00.0,38.6,30.9,18.6,0002.4,0031.70,0046.91,0029.11
2021-09-09 04:36:00,,0831.7,5.00,0.00,29.3,27.0,00.0,38.5,30.9,18.6,0002.5,0031.79,0047.54,0029.15
2021-09-09 04:37:00,,0831.7,5.00,0.00,29.3,27.4,00.0,38.5,31.0,18.6,0002.4,0031.87,0047.53,0029.23
2021-09-09 04:38:00,,0831.7,5.01,0.00,29.4,27.7,00.0,38.5,31.1,18.6,0002.2,0031.84,0047.86,0029.23
2021-09-09 04:39:00,,0831.7,4.98,0.00,29.4,27.9,00.0,38.5,31.1,18.6,0002.0,0031.90,0047.21,0029.22
2021-09-09 04:40:00,,0831.7,5.00,0.00,29.4,28.1,00.0,38.5,31.2,18.5,0002.0,0031.88,0046.64,0029.20
2021-09-09 04:41:00,,0831.8,5.00,0.00,29.5,28.2,00.0,38.5,31.3,18.5,0002.2,0031.90,0046.87,0029.19
2021-09-09 04:42:00,,0831.8,4.99,0.00,29.5,28.4,00.0,38.5,31.3,18.4,0002.3,0032.06,0047.64,0029.28
2021-09-09 04:43:00,,0831.7,4.99,0.00,29.5,28.5,00.0,38.5,31.3,18.4,0002.5,0032.09,0048.60,0029.30
2021-09-09 04:44:00,,0831.8,5.00,0.00,29.6,28.6,00.0,38.6,31.4,18.4,0002.5,0032.06,0048.71,0029.30
2021-09-09 04:45:00,,0831.7,5.00,0.00,29.6,28.6,00.0,38.6,31.4,18.4,0002.6,0032.08,0048.22,0029.35
2021-09-09 04:46:00,,0831.8,5.00,0.00,29.6,28.7,00.0,38.6,31.4,18.4,0002.6,0032.04,0048.73,0029.36
2021-09-09 04:47:00,,0831.7,5.01,0.00,29.7,28.8,00.0,38.6,31.5,18.3,0002.6,0032.02,0050.05,0029.40
2021-09-09 04:48:00,,0831.7,4.99,0.00,29.7,28.8,00.0,38.6,31.5,18.3,0002.7,0032.05,0051.62,0029.41
2021-09-09 04:49:00,,0831.7,5.01,0.00,29.7,28.8,00.0,38.7,31.5,18.3,0002.9,0032.11,0052.18,0029.45
2021-09-09 04:50:00,,0831.7,5.00,0.00,29.8,28.7,00.0,38.7,31.5,18.2,0003.0,0032.15,0053.60,0029.50
2021-09-09 04:51:00,,0831.7,5.01,0.00,29.7,27.0,00.0,38.7,31.1,18.3,0003.1,0032.11,0054.27,0029.55
2021-09-09 04:52:00,,0831.7,5.01,0.00,29.5,26.2,00.0,38.7,30.9,18.4,0002.9,0032.11,0054.63,0029.62
2021-09-09 04:53:00,,0831.7,5.00,0.00,29.5,26.4,00.0,38.7,30.9,18.5,0002.9,0032.07,0054.38,0029.62
2021-09-09 04:54:00,,0831.8,5.00,0.00,29.4,26.8,00.0,38.6,30.9,18.6,0002.8,0032.15,0053.62,0029.66
2021-09-09 04:55:00,,0831.7,5.00,0.00,29.4,27.2,00.0,38.6,31.0,18.6,0002.5,0032.16,0052.94,0029.68
2021-09-09 04:56:00,,0831.7,4.99,0.00,29.4,27.5,00.0,38.6,31.1,18.6,0002.3,0032.15,0054.11,0029.67
2021-09-09 04:57:00,,0831.7,5.01,0.00,29.4,27.8,00.0,38.5,31.1,18.5,0002.2,0032.15,0054.03,0029.64
2021-09-09 04:58:00,,0831.7,5.00,0.00,29.4,28.0,00.0,38.5,31.2,18.5,0001.9,0032.02,0052.02,0029.52
2021-09-09 04:59:00,,0831.7,5.01,0.00,29.5,28.2,00.0,38.5,31.2,18.4,0001.8,0031.80,0050.44,0029.40
